Tracking 30143 objects as of 20-Jan-2025
HD Live streaming from Space Station
objects crossing your sky now

COSMOS 1275 DEB

Track COSMOS 1275 DEB now!
10-day predictions


NORAD ID: 14440
Int'l Code: 1981-053JK
Perigee: 944.7 km
Apogee: 1,114.0 km
Inclination: 82.9 °
Period: 105.6 minutes
Semi major axis: 7400 km
RCS: 0.017 m2 (small)
Launch date: June 4, 1981
Source: Commonwealth of Independent States (former USSR) (CIS)
Launch site: PLESETSK MISSILE AND SPACE COMPLEX (PKMTR)

Note: This is SATELLITE DEBRIS
Your satellite tracking list
Your tracking list is empty




NASA's NSSDC Master Catalog

Two Line Element Set (TLE):
1 14440U 81053JG  25019.52508633  .00000899  00000-0  10684-2 0  9996
2 14440  82.9192 211.1901 0114342  17.1146  44.6366 13.63719731143543
Source of the keplerian elements: AFSPC